Toronto Pearson, Ontario

6:16 PM EDT on October 18, 2017 (GMT -0400)
Toronto-Pearson International

Weather History for CYYZ - April, 2014

Change the Weather History Date:

Saturday, April 5, 2014

  Actual Average Record
Temperature  
Mean Temperature 34 °F -  
Max Temperature 38 °F 55 °F 55 °F (2005)
Min Temperature 30 °F 35 °F 15 °F (2016)
Degree Days  
Heating Degree Days 31    
Moisture  
Dew Point 25 °F    
Average Humidity 66    
Maximum Humidity 81    
Minimum Humidity 44    
Precipitation  
Precipitation 0.00 in 0.08 in - ()
Sea Level Pressure  
Sea Level Pressure 29.88 in    
Wind  
Wind Speed 20 mph ()    
Max Wind Speed 31 mph    
Max Gust Speed 38 mph    
Visibility 14.9 miles    
Events Rain , Snow    
Averages and records for this station are not official NWS values.
T = Trace of Precipitation, MM = Missing Value Source: Averaged Metar Reports

Daily Weather History Graph

Daily Weather History Graph

Search for Another Location

Airport or City:

Trip Planner

Search our weather history database for the weather conditions in past years. The results will help you decide how hot, cold, wet, or windy it might be!

Date:

Astronomy

Apr. 05, 2014 Rise Set
Actual Time 6:53 AM EDT 7:50 PM EDT
Civil Twilight 6:23 AM EDT 8:19 PM EDT
Nautical Twilight 5:49 AM EDT 8:54 PM EDT
Astronomical Twilight 5:12 AM EDT 9:30 PM EDT
Moon 10:52 AM EDT (4/5) 1:05 AM EDT (4/5)
Length of Visible Light 13h 55m
Length of Day
12h 57m
Waxing Crescent, 34% of the Moon is Illuminated
Apr 5
Waxing Crescent
Apr 7
First Quarter
Apr 15
Full
Apr 22
Last Quarter
Apr 29
New

Hourly Weather History & Observations

Time (EDT) Temp. Windchill Dew Point Humidity Pressure Visibility Wind Dir Wind Speed Gust Speed Precip Events Conditions
12:00 AM 41.0 °F 30.9 °F 35.6 °F 81% 29.57 in 15.0 mi WSW 24.2 mph 29.9 mph N/A   Overcast
1:00 AM 39.2 °F 28.3 °F 32.0 °F 75% 29.59 in 15.0 mi WSW 25.3 mph 35.7 mph N/A   Overcast
1:34 AM 39.2 °F 29.8 °F 32.0 °F 75% 29.60 in 12.0 mi SW 18.4 mph 26.5 mph N/A Rain Light Rain Showers
2:00 AM 38 °F - 31 °F 67% 29.60 in 15 mi WSW 25.3 mph - - Rain Light Rain Showers
2:00 AM 39.2 °F 28.3 °F 30.2 °F 70% 29.60 in 15.0 mi WSW 25.3 mph 35.7 mph N/A Rain Light Rain Showers
3:00 AM 37.4 °F 27.2 °F 30.2 °F 75% 29.63 in 15.0 mi WSW 19.6 mph 33.4 mph N/A   Overcast
4:00 AM 35.6 °F 23.7 °F 30.2 °F 81% 29.65 in 15.0 mi West 24.2 mph 29.9 mph N/A   Overcast
5:00 AM 35.6 °F 24.0 °F 28.4 °F 75% 29.68 in 15.0 mi West 23.0 mph 36.8 mph N/A   Overcast
6:00 AM 33.8 °F 19.9 °F 26.6 °F 75% 29.70 in 15.0 mi West 31.1 mph 38.0 mph N/A   Overcast
7:00 AM 33.8 °F 21.9 °F 26.6 °F 75% 29.75 in 15.0 mi West 21.9 mph 32.2 mph N/A Snow Light Snow
8:00 AM 32 °F - 24 °F 63% 29.79 in 15 mi West 24.2 mph - - Snow Light Snow
8:00 AM 32.0 °F 19.2 °F 24.8 °F 75% 29.79 in 15.0 mi West 23.0 mph 34.5 mph N/A Snow Light Snow
8:44 AM 30.2 °F 15.7 °F 23.0 °F 75% 29.83 in 15.0 mi WNW 27.6 mph 34.5 mph N/A   Mostly Cloudy
9:00 AM 32.0 °F 19.2 °F 23.0 °F 69% 29.84 in 15.0 mi WNW 23.0 mph 31.1 mph N/A   Overcast
10:00 AM 30.2 °F 16.2 °F 21.2 °F 69% 29.88 in 15.0 mi WNW 25.3 mph 35.7 mph N/A   Mostly Cloudy
11:00 AM 32.0 °F 18.4 °F 21.2 °F 64% 29.92 in 15.0 mi West 26.5 mph 35.7 mph N/A   Mostly Cloudy
12:00 PM 32.0 °F 17.6 °F 23.0 °F 69% 29.95 in 15.0 mi WNW 29.9 mph 38.0 mph N/A   Mostly Cloudy
1:00 PM 33.8 °F 22.2 °F 23.0 °F 65% 29.98 in 15.0 mi West 20.7 mph 34.5 mph N/A   Mostly Cloudy
2:00 PM 36 °F - 23 °F 48% 30.00 in 15 mi WNW 25.3 mph - -   Partly Cloudy
2:00 PM 35.6 °F 23.7 °F 23.0 °F 60% 30.00 in 15.0 mi West 24.2 mph 33.4 mph N/A   Mostly Cloudy
3:00 PM 37.4 °F 25.4 °F 23.0 °F 56% 30.01 in 15.0 mi WNW 27.6 mph 35.7 mph N/A   Mostly Cloudy
4:00 PM 37.4 °F 27.2 °F 21.2 °F 52% 30.04 in 15.0 mi WNW 19.6 mph 33.4 mph N/A   Partly Cloudy
5:00 PM 37.4 °F 25.6 °F 21.2 °F 52% 30.05 in 15.0 mi West 26.5 mph 35.7 mph N/A   Partly Cloudy
6:00 PM 37.4 °F 26.6 °F 21.2 °F 52% 30.09 in 15.0 mi WNW 21.9 mph 28.8 mph N/A   Partly Cloudy
7:00 PM 35.6 °F 26.2 °F 21.2 °F 56% 30.10 in 15.0 mi WNW 15.0 mph 21.9 mph N/A   Partly Cloudy
8:00 PM 33 °F - 19 °F 44% 30.13 in 15 mi WNW 16.1 mph - -  
8:00 PM 33.8 °F 23.9 °F 19.4 °F 56% 30.13 in 15.0 mi WNW 15.0 mph - N/A   Clear
9:00 PM 30.2 °F 22.6 °F 21.2 °F 69% 30.15 in 15.0 mi West 8.1 mph - N/A   Clear
10:00 PM 30.2 °F 26.7 °F 21.2 °F 69% 30.17 in 15.0 mi West 3.5 mph - N/A   Clear
11:00 PM 30.2 °F 25.4 °F 21.2 °F 69% 30.17 in 15.0 mi West 4.6 mph - N/A   Clear